Overview Statistics Trail Chart Weather Telemetry Raw packets
 

This is the latest recevied weather packets stored in our database for station/object KG5APU. If no packets are shown the sender has not sent any weather packets the latest 10 day(s).

<< 23 24 25 26 27 28 29 >>
Time Temp. Humidity Pressure Rain* Wind** Luminosity Snow
1788282980 35° C 50% 1018 hPa 0 mm - 755 W/m² -
1788282379 34.44° C 50% 1017.9 hPa 0 mm - 750 W/m² -
1788281778 35° C 50% 1018.1 hPa 0 mm - 722 W/m² -
1788281176 35° C 51% 1018.1 hPa 0 mm - 699 W/m² -
1788280572 35° C 52% 1018.4 hPa 0 mm - 673 W/m² -
1788279972 35° C 53% 1018.1 hPa 0 mm - 647 W/m² -
1788279370 35° C 54% 1018.5 hPa 0 mm - 617 W/m² -
1788278767 35° C 56% 1018.2 hPa 0 mm - 592 W/m² -
1788278166 33.33° C 56% 1018.5 hPa 0 mm - 562 W/m² -
1788277561 32.78° C 57% 1018.4 hPa 0 mm - 531 W/m² -
1788276957 32.78° C 58% 1018.2 hPa 0 mm - 503 W/m² -
1788276352 32.22° C 60% 1018.5 hPa 0 mm - 473 W/m² -
1788275747 32.78° C 61% 1018.2 hPa 0 mm - 430 W/m² -
1788275144 32.78° C 62% 1018.4 hPa 0 mm - 413 W/m² -
1788274542 32.22° C 63% 1018.4 hPa 0 mm - 382 W/m² -
1788273938 31.67° C 63% 1018.6 hPa 0 mm - 162 W/m² -
1788273334 31.67° C 66% 1018.6 hPa 0 mm - 201 W/m² -
1788272731 31.11° C 65% 1018.8 hPa 0 mm - 168 W/m² -
1788272132 30.56° C 66% 1018.4 hPa 0 mm - 243 W/m² -
1788271531 30.56° C 67% 1018.5 hPa 0 mm - 213 W/m² -
1788270931 30° C 69% 1018.7 hPa 0 mm - 187 W/m² -
1788270329 29.44° C 69% 1018.5 hPa 0 mm - 160 W/m² -
1788269727 28.89° C 70% 1018.4 hPa 0 mm - 137 W/m² -
1788269127 28.89° C 71% 1018.7 hPa 0 mm - 114 W/m² -
1788268526 28.89° C 71% 1018.5 hPa 0 mm - 95 W/m² -

* Rain latest hour (hover to see other rain measurements)
** Current wind speed in m/s (hover to see current wind gust speed)